Regional Weather Roundup
Issued by NWS New Orleans/Baton Rouge, LA

Home | Current Version | Previous Version | Graphics & Text | Print | Product List | Glossary On
Versions: 1 2 3 4 5 6 7 8 9 10 11 12 13 14 15 16 17 18 19 20 21 22 23 24 25 26 27 28 29 30 31 32 33 34 35 36 37 38 39 40 41 42 43 44 45 46 47 48 49 50
938
ASUS44 KLIX 211005
RWRLIX
NEW ORLEANS REGIONAL WEATHER ROUNDUP
NATIONAL WEATHER SERVICE NEW ORLEANS LA
500 AM CDT TUE OCT 21 2014

NOTE: "FAIR" INDICATES FEW OR NO CLOUDS BELOW 12,000 FEET WITH NO
      SIGNIFICANT WEATHER AND/OR OBSTRUCTIONS TO VISIBILITY.
      SKY/WX - SKY CONDITION AND SIGNIFICANT WEATHER.
      TMP - AIR TEMPERATURE.     DP    - DEWPOINT TEMPERATURE.
      RH  - RELATIVE HUMIDITY.   PRES  - PRESSURE.
      HI  - HEAT INDEX.          WCI   - WIND CHILL INDEX.

*  THESE STATIONS ARE NOT NWS OR FAA STATIONS AND ARE NOT UNDER
   NWS QUALITY CONTROL.

LAZ038-040-048-061>063-065>067-069-211100-
SOUTHEAST LOUISIANA

CITY           SKY/WX    TMP DP  RH WIND       PRES   REMARKS
N.O. AUDUBON   NOT AVBL
N.O. INTL ARPT CLEAR     60  54  80 CALM      30.01R
N.O. LAKEFRONT CLEAR     69  55  60 NE10      30.01S
N.O. DOWNTOWN*   N/A     66  52  59 NE6       30.01S
SLIDELL        CLEAR     51  48  89 CALM      30.02R
BATON ROUGE    CLEAR     56  52  86 NE5       30.02R
BOOTHVILLE     CLEAR     71  59  65 NE3       30.00S
BELLE CHASSE   CLEAR     54  51  90 CALM      30.01R
BOGALUSA*        N/A     49  46  88 CALM      30.04R
NEW ROADS*       N/A     54  53  97 CALM      30.03R
GONZALES*        N/A     55  55 100 CALM      30.01S
HAMMOND*         N/A     52  48  87 CALM      30.04R
HOUMA*         CLEAR     57  56  95 N3        30.00S
PORT FOURCHON* SUNNY     70  59  68 NE7       30.02F

$$

MSZ070-080>082-211100-
SOUTHERN MISSISSIPPI

CITY           SKY/WX    TMP DP  RH WIND       PRES   REMARKS
MCCOMB         CLEAR     54  49  83 CALM      30.04R
GULFPORT       CLEAR     54  51  90 CALM      30.01R
BILOXI         CLEAR     57  51  82 NE5       30.02R
PASCAGOULA     CLEAR     47  46  97 CALM      30.02R

$$

COASTAL OBSERVATIONS
LAKE AND NEARSHORE STATIONS

STATION/POSITION TIME  TEMP    WIND        PRES    WAVE
                       AIR SEA DIR/SP/G            HT/PER
                 (UTC) (F)     (DEG/KT/KT) (MB)    (FT/S)
PASCAGOULA       1000   57      30/  5/  7 1015.5
WAVELAND YACHT   1000   63      30/  5/  6 1015.5
GRAND ISLE       1000   70 77   60/  7/  9 1016.1
SOUTHWEST PASS   1000   72 83              1015.6
NEW CANAL        1000   69 72   60/  7/  9 1016.4
SHELL BEACH      1000   70 69   40/ 12/ 13 1015.7

OFFSHORE STATIONS

STATION/POSITION TIME  TEMP    WIND        PRES    WAVE
                       AIR SEA DIR/SP/G            HT/PER
                 (UTC) (F)     (DEG/KT/KT) (MB)    (FT/S)
64 S DAUPHIN ISL 0939   74 79   40/ 10/ 12 1015.8    1/ 6

$$




USA.gov is the U.S. government's official web portal to all federal, state and local government web resources and services.